This is the latest recevied weather packets stored in our database for station/object VR2MW-X. If no packets are shown the sender has not sent any weather packets the latest 10 day(s).
| Time | Temp. | Humidity | Pressure | Rain* | Wind** | Luminosity | Snow |
|---|---|---|---|---|---|---|---|
| 1777478077 | 22.22° C | 76% | 1015 hPa | - | - | - | - |
| 1777477466 | 22.22° C | 77% | 1015 hPa | - | - | - | - |
| 1777476856 | 22.22° C | 71% | 1015.2 hPa | - | - | - | - |
| 1777476245 | 22.22° C | 68% | 1015.2 hPa | - | - | - | - |
| 1777475635 | 22.22° C | 73% | 1014.8 hPa | - | - | - | - |
| 1777475024 | 22.22° C | 80% | 1014.7 hPa | - | - | - | - |
| 1777474413 | 22.22° C | 74% | 1014.7 hPa | - | - | - | - |
| 1777473803 | 22.78° C | 76% | 1014.7 hPa | - | - | - | - |
| 1777473192 | 22.78° C | 75% | 1014.3 hPa | - | - | - | - |
| 1777472582 | 22.78° C | 75% | 1014.2 hPa | - | - | - | - |
| 1777471971 | 22.78° C | 82% | 1014.1 hPa | - | - | - | - |
| 1777471361 | 22.78° C | 79% | 1014.1 hPa | - | - | - | - |
| 1777470750 | 22.78° C | 84% | 1013.8 hPa | - | - | - | - |
| 1777470139 | 22.78° C | 83% | 1013.7 hPa | - | - | - | - |
| 1777469528 | 22.78° C | 81% | 1013.6 hPa | - | - | - | - |
| 1777468917 | 22.78° C | 81% | 1013.2 hPa | - | - | - | - |
| 1777468307 | 22.78° C | 83% | 1013 hPa | - | - | - | - |
| 1777467696 | 22.78° C | 85% | 1012.7 hPa | - | - | - | - |
| 1777467086 | 22.78° C | 85% | 1012.6 hPa | - | - | - | - |
| 1777466476 | 22.78° C | 93% | 1012.3 hPa | - | - | - | - |
| 1777465255 | 22.78° C | 95% | 1012.1 hPa | - | - | - | - |
| 1777464644 | 22.78° C | 95% | 1012 hPa | - | - | - | - |
| 1777464034 | 22.78° C | 95% | 1011.6 hPa | - | - | - | - |
| 1777463424 | 23.89° C | 94% | 1011.6 hPa | - | - | - | - |
| 1777462813 | 23.89° C | 94% | 1011.5 hPa | - | - | - | - |
* Rain since midnight (hover to see other rain measurements)
** Current wind speed in m/s (hover to see current wind gust speed)